Regional Weather Roundup
Issued by NWS

Home | Current Version | Previous Version | Graphics & Text | Print | Product List | Glossary On
Versions: 1 2 3 4 5 6 7 8 9 10 11 12 13 14 15 16 17 18 19 20 21 22 23 24 25 26 27 28 29 30 31 32 33 34 35 36 37 38 39 40 41 42 43 44 45 46 47 48 49 50
000
ASUS45 KABQ 041801
RWRNM
NEW MEXICO REGIONAL WEATHER ROUNDUP
NATIONAL WEATHER SERVICE ALBUQUERQUE NM
1200 PM MDT SAT JUL 04 2015

NOTE: "FAIR" MEANS FEW OR NO CLOUDS BELOW 12,000 FEET AGL WITH NO
       SIGNIFICANT WEATHER OR OBSTRUCTIONS TO VISION.

      THIS PRODUCT IS RELEASED AS TWO VERSIONS.  ONE VERSION NEAR
      THE TOP OF THE HOUR CONTAINING PRELIMINARY DATA FROM ALBUQUERQUE
      AND OTHER STATIONS.  A FINAL VERSION WITH ADDITIONAL DATA IS
      ISSUED ABOUT 10 MINUTES AFTER THE HOUR.

NMZ501-503-504-510>518-041900-
NORTHWEST PLATEAU/NORTHCENTRAL MOUNTAINS

CITY           SKY/WX    TMP DP  RH WIND       PRES   REMARKS
FARMINGTON     SUNNY     82  56  40 SE7       30.12F
6HR MIN TEMP:  59; 6HR MAX TEMP:  82;

SANTA FE       SUNNY     81  51  35 VRB3      30.19F
6HR MIN TEMP:  62; 6HR MAX TEMP:  82;

TAOS           SUNNY     77  48  36 E5          N/A

$$
NMZ402-403-502-505>509-041900-
WESTCENTRAL MOUNTAINS/SOUTHWEST MOUNTAINS

CITY           SKY/WX    TMP DP  RH WIND       PRES   REMARKS
GALLUP         MOSUNNY   80  52  37 S7        30.20F
6HR MIN TEMP:  60; 6HR MAX TEMP:  81;

GRANTS         MOSUNNY   82  53  37 E9        30.21S
SILVER CITY      N/A     77  55  47 SE6       30.18S

$$
NMZ407-409-411-412-041900-
SOUTHERN DESERTS

CITY           SKY/WX    TMP DP  RH WIND       PRES   REMARKS
LORDSBURG      FAIR      79  57  47 S10       30.09F
DEMING         PTSUNNY   81  61  50 CALM      30.09F
6HR MIN TEMP:  68; 6HR MAX TEMP:  81;

HOLLOMAN AFB   SUNNY     86  58  38 VRB3      30.05F
ALAMOGORDO     SUNNY     84  55  37 W8        30.08F
T OR C         MOSUNNY   86  56  35 SE7G17    30.09F
6HR MIN TEMP:  68; 6HR MAX TEMP:  86;


$$
NMZ519>523-041900-
CENTRAL VALLEYS/CENTRAL HIGHLANDS

CITY           SKY/WX    TMP DP  RH WIND       PRES   REMARKS
ALBUQUERQUE    MOSUNNY   82  56  40 SW7       30.13F
6HR MIN TEMP:  70; 6HR MAX TEMP:  82;

CLINES CORNERS SUNNY     78  53  41 NW10      30.24F
6HR MIN TEMP:  55; 6HR MAX TEMP:  78;

BELEN          FAIR      85  54  34 S7        30.12F
6HR MIN TEMP:  64; 6HR MAX TEMP:  85;

SOCORRO        NOT AVBL

$$
NMZ524>526-539-540-041900-
SOUTHCENTRAL MOUNTAINS

CITY           SKY/WX    TMP DP  RH WIND       PRES   REMARKS
RUIDOSO        NOT AVBL

$$
NMZ527>531-041900-
NORTHEAST HIGHLANDS/NORTHEAST PLAINS

CITY           SKY/WX    TMP DP  RH WIND       PRES   REMARKS
LAS VEGAS      MOSUNNY   78  55  44 S13G18    30.21F
6HR MIN TEMP:  58; 6HR MAX TEMP:  78;

RATON          SUNNY     77  59  53 S8        30.15F
6HR MIN TEMP:  60; 6HR MAX TEMP:  77;

CLAYTON        SUNNY     89  57  33 S17G24    30.07F
6HR MIN TEMP:  62; 6HR MAX TEMP:  89;


$$
NMZ532>537-041900-
EASTCENTRAL PLAINS

CITY           SKY/WX    TMP DP  RH WIND       PRES   REMARKS
TUCUMCARI      SUNNY     87  61  41 SW13G20   30.05F
6HR MIN TEMP:  63; 6HR MAX TEMP:  88;

CANNON AFB     SUNNY     82  62  51 S7        30.10F
6HR MIN TEMP:  66; 6HR MAX TEMP:  82;

CLOVIS AIRPORT MOSUNNY   82  63  51 S6          N/A

$$
NMZ028-029-538-041900-
SOUTHEAST PLAINS

CITY           SKY/WX    TMP DP  RH WIND       PRES   REMARKS
ROSWELL        MOSUNNY   86  60  41 SE13      30.06F
6HR MIN TEMP:  66; 6HR MAX TEMP:  86;

ARTESIA        MOSUNNY   84  63  48 E12       30.07F
CARLSBAD       SUNNY     85  62  46 NE5       30.04F
6HR MIN TEMP:  67; 6HR MAX TEMP:  86;

HOBBS          PTSUNNY   82  61  47 SE9       30.09F


$$



USA.gov is the U.S. government's official web portal to all federal, state and local government web resources and services.